Dewpoint
67 66 65 64 63 63 63 62 63 64 63 63 63 63 64 65 67 66 66 66 66 66 66 66 67 66 66 66 66 66 66 65 66 65 64 65 65 64 64 64 64 65
66 66 66 64 64 65 64 63 63 63 63 63 63 63 64 66 66 65 65 65 67 66 65 66 66 67 66 66 66 65 65 66 65 66 65 64 65 65 64 64 64 64
66 65 64 62 62 63 63 63 64 63 63 63 63 63 65 66 65 65 65 65 65 66 65 66 66 67 66 66 65 65 65 65 64 64 66 65 65 65 65 64 64 64
66 65 64 63 62 63 64 64 63 63 63 63 63 64 65 66 65 65 64 67 65 65 65 65 65 65 66 65 65 65 65 65 64 64 64 65 65 65 64 64 64 64
65 64 64 63 63 64 64 63 63 63 63 63 63 64 65 66 65 64 64 65 65 64 64 64 64 65 65 65 65 65 65 65 65 65 64 64 64 65 65 65 64 64
65 64 64 62 63 64 63 63 63 62 62 62 62 64 64 64 65 64 64 64 64 64 63 63 64 64 65 65 65 65 64 65 65 64 64 64 64 64 64 65 64 64
63 63 62 63 63 63 63 63 63 64 62 62 63 63 64 64 64 64 64 64 64 65 64 64 64 64 64 64 64 64 64 64 64 64 64 64 64 64 64 64 65 64
63 62 62 63 63 63 62 62 63 63 63 63 62 62 64 63 63 63 64 64 63 63 64 64 64 64 63 63 63 63 63 64 64 64 64 63 64 64 64 65 65 64
63 63 63 62 62 62 62 62 62 63 63 62 62 62 63 63 63 63 63 64 63 63 63 63 63 63 63 63 63 63 63 63 64 64 64 63 63 64 64 64 64 64
63 63 62 62 61 62 63 64 62 63 64 62 62 61 62 63 63 63 63 63 63 63 63 63 63 63 63 63 63 63 63 63 63 63 64 64 63 63 63 63 63 63
64 64 62 62 62 63 62 62 61 62 63 62 62 61 61 61 63 63 62 62 62 62 62 62 62 62 62 62 63 63 63 63 63 63 63 63 63 63 63 64 63 63
64 63 62 62 63 63 63 62 63 63 63 64 62 61 61 61 61 62 63 62 62 62 62 62 62 63 63 62 62 63 63 64 64 64 63 63 63 63 63 64 64 63
64 64 63 63 64 64 64 63 62 64 63 63 64 62 61 61 61 61 62 63 62 62 62 62 62 62 63 63 63 63 63 64 64 64 64 64 63 63 63 63 63 63
65 65 64 64 64 64 64 64 64 64 63 64 64 63 62 61 61 61 61 62 62 62 62 63 63 62 62 63 63 63 63 63 63 63 63 63 64 64 64 63 63 63
65 65 65 65 65 64 64 64 65 64 64 64 64 63 63 62 62 61 61 61 62 63 63 63 62 62 62 62 62 62 62 62 62 62 62 62 62 63 63 63 64 64
65 65 64 65 65 65 64 64 65 65 65 63 63 63 63 63 62 62 61 61 61 62 62 62 62 62 64 63 62 62 61 61 61 62 62 62 62 63 63 63 63 64
65 65 64 64 64 65 65 64 64 65 64 64 64 64 63 62 62 61 60 60 60 60 60 61 62 62 62 60 61 63 63 62 61 61 62 63 63 63 63 64 64 64
65 65 64 63 63 63 64 64 65 64 63 63 63 63 62 62 61 61 61 60 60 60 60 61 61 62 59 59 60 61 62 64 63 62 62 62 63 63 63 64 63 63
65 64 64 63 61 61 63 64 64 63 63 62 62 62 62 62 62 61 61 61 61 60 60 61 61 61 59 59 59 59 60 62 63 63 63 63 63 63 63 63 63 63
64 63 62 61 61 62 63 63 64 63 62 62 61 62 61 61 62 61 61 61 61 61 61 61 61 60 58 58 58 58 59 60 62 62 62 63 63 63 62 62 62 62
63 63 61 61 61 61 61 63 64 62 61 61 61 62 62 62 62 61 61 61 61 61 61 61 61 59 58 58 57 56 57 60 62 62 62 62 62 62 62 61 61 62
63 62 62 62 62 62 62 62 63 62 62 62 63 63 63 62 62 62 61 61 61 61 61 61 61 59 58 57 56 56 57 61 61 61 61 61 61 61 61 61 61 61
62 62 61 61 62 62 61 61 62 62 62 63 62 63 62 62 62 61 62 61 61 62 61 62 62 60 56 55 55 55 57 60 60 60 60 60 60 59 59 60 60 61
62 62 62 62 62 61 61 62 62 63 63 64 63 63 62 62 62 62 62 62 61 61 62 62 62 60 55 53 53 54 57 58 59 58 58 59 59 59 59 59 60 61
63 63 62 62 62 62 61 62 63 63 64 64 64 63 63 63 63 62 61 62 61 62 64 62 61 58 53 53 53 53 57 58 58 58 58 59 58 58 58 59 60 59
63 63 63 62 62 62 62 63 63 64 63 63 63 63 63 62 62 62 61 62 62 63 63 63 62 61 60 52 51 53 56 60 59 59 58 59 59 58 59 59 58 57